O3B FM9 (40351 NORAD) Tracking and Keplerian Element Data

This shows tracking and keplerian element data for the satellite.

Feedback or suggestion? Click here.




ElementValue
Catalog40351
NameO3B FM9
Epoch Orbit7135
Epoch Day317.34024307
Epoch Year2018
RAAN20.1972
Inclination0.0417
Eccentricity0.0002618
Argument of Perigee211.7056
Mean Anonmoly128.0791
Mean Motion5.00114771
Decay Rate-2.7E-07
L11 40351U 14083D 18317.34024307 -.00000027 00000-0 00000-0 0 9992
L22 40351 0.0417 20.1972 0002618 211.7056 128.0791 5.00114771 71357

Live tracking and technical data element details for O3B FM9 (NORAD 40351). O3B FM9 can be tracked NOW for your location showing map with azimuth and elevation plus other details from your city location.

Track the satellite on the map from your city or location and see movement details for azimuth, elevation, latitude, longitude, range, height, and movement on the map or in text.







IsCatalogInMostPopularTable: catalog: 40351, numindb: 118
Update: records affected: 1



GetName: 40351 O3B FM9

Hit Count: updated at: Wed, 14 Nov 2018 11:24:38 GMT